| time (UTC) | temp F | wind direction | speed knots | gust knots | rain 1hr in | rain 24hr in | rain mn in | humidity % | barometer mb |
| 20260504204553 | 65 | 204 | 6.1 | 13.9 | 0.00 | 0.00 | 0.00 | 39 | 1007.8 |
| 20260504203030 | 65 | 204 | 5.2 | 13.9 | 0.00 | 0.00 | 0.00 | 40 | 1008.0 |
| 20260504201505 | 65 | 204 | 7.8 | 16.5 | 0.00 | 0.00 | 0.00 | 40 | 1008.1 |
| 20260504200050 | 65 | 204 | 6.1 | 14.8 | 0.00 | 0.00 | 0.00 | 41 | 1008.3 |
| 20260504194538 | 65 | 204 | 6.1 | 13.0 | 0.00 | 0.00 | 0.00 | 40 | 1008.4 |
| 20260504193005 | 65 | 204 | 5.2 | 11.3 | 0.00 | 0.00 | 0.00 | 40 | 1008.7 |
| 20260504191543 | 65 | 204 | 6.1 | 17.4 | 0.00 | 0.00 | 0.00 | 40 | 1008.7 |
| 20260504190021 | 65 | 204 | 3.5 | 13.0 | 0.00 | 0.00 | 0.00 | 40 | 1009.0 |
| 20260504184559 | 65 | 204 | 7.0 | 15.6 | 0.00 | 0.00 | 0.00 | 40 | 1009.0 |
| 20260504183036 | 64 | 205 | 6.1 | 18.2 | 0.00 | 0.00 | 0.00 | 40 | 1009.3 |
| 20260504181517 | 64 | 204 | 8.7 | 15.6 | 0.00 | 0.00 | 0.00 | 40 | 1009.4 |
| 20260504180053 | 64 | 204 | 7.8 | 19.1 | 0.00 | 0.00 | 0.00 | 39 | 1009.4 |
| 20260504174535 | 64 | 204 | 8.7 | 14.8 | 0.00 | 0.00 | 0.00 | 40 | 1009.6 |
| 20260504173010 | 63 | 204 | 7.0 | 15.6 | 0.00 | 0.00 | 0.00 | 41 | 1009.7 |
| 20260504171547 | 62 | 204 | 7.8 | 15.6 | 0.00 | 0.00 | 0.00 | 42 | 1009.9 |
| 20260504081555 | 43 | 206 | 5.2 | 10.4 | 0.00 | 0.00 | 0.00 | 60 | 1012.9 |
| 20260504080109 | 43 | 206 | 6.1 | 10.4 | 0.00 | 0.00 | 0.00 | 59 | 1012.9 |
| 20260504044519 | 44 | 206 | 4.3 | 10.4 | 0.00 | 0.00 | 0.00 | 58 | 1013.1 |
| 20260504043016 | 44 | 206 | 4.3 | 9.6 | 0.00 | 0.00 | 0.00 | 57 | 1013.0 |
| 20260504041505 | 44 | 206 | 3.5 | 9.6 | 0.00 | 0.00 | 0.00 | 56 | 1013.0 |
| 20260504040116 | 45 | 206 | 3.5 | 9.6 | 0.00 | 0.00 | 0.00 | 55 | 1012.8 |
| 20260504034550 | 45 | 206 | 3.5 | 7.8 | 0.00 | 0.00 | 0.00 | 55 | 1012.7 |
| 20260504033051 | 45 | 207 | 3.5 | 7.0 | 0.00 | 0.00 | 0.00 | 54 | 1012.7 |
| 20260504031557 | 46 | 206 | 4.3 | 8.7 | 0.00 | 0.00 | 0.00 | 54 | 1012.8 |
| 20260504030045 | 46 | 206 | 2.6 | 7.0 | 0.00 | 0.00 | 0.00 | 54 | 1012.8 |
| 20260504024547 | 46 | 207 | 4.3 | 9.6 | 0.00 | 0.00 | 0.00 | 53 | 1012.9 |
| 20260504023042 | 46 | 207 | 4.3 | 8.7 | 0.00 | 0.00 | 0.00 | 53 | 1012.8 |
| 20260504021539 | 46 | 206 | 3.5 | 10.4 | 0.00 | 0.00 | 0.00 | 52 | 1012.8 |
| 20260504020023 | 46 | 206 | 3.5 | 8.7 | 0.00 | 0.00 | 0.00 | 51 | 1012.8 |
| 20260504014522 | 46 | 206 | 3.5 | 7.0 | 0.00 | 0.00 | 0.00 | 50 | 1012.8 |
| 20260504013005 | 47 | 206 | 3.5 | 6.1 | 0.00 | 0.00 | 0.00 | 49 | 1012.7 |
| 20260504011552 | 47 | 206 | 3.5 | 8.7 | 0.00 | 0.00 | 0.00 | 48 | 1012.5 |
| 20260504010051 | 47 | 206 | 3.5 | 7.0 | 0.00 | 0.00 | 0.00 | 47 | 1012.5 |
| 20260504004542 | 48 | 206 | 1.7 | 5.2 | 0.00 | 0.00 | 0.00 | 46 | 1012.5 |
| 20260504003026 | 48 | 207 | 3.5 | 8.7 | 0.00 | 0.00 | 0.00 | 45 | 1012.4 |
| 20260504001520 | 48 | 206 | 2.6 | 7.8 | 0.00 | 0.00 | 0.00 | 44 | 1012.2 |
| 20260504000016 | 49 | 206 | 2.6 | 6.1 | 0.00 | 0.00 | 0.00 | 44 | 1012.1 |
| 20260503234507 | 49 | 207 | 3.5 | 10.4 | 0.00 | 0.00 | 0.00 | 43 | 1012.0 |
| 20260503233044 | 49 | 207 | 4.3 | 9.6 | 0.00 | 0.00 | 0.00 | 43 | 1011.9 |
| 20260503231519 | 50 | 206 | 3.5 | 8.7 | 0.00 | 0.00 | 0.00 | 42 | 1011.9 |
| 20260503230015 | 50 | 208 | 3.5 | 9.6 | 0.00 | 0.00 | 0.00 | 41 | 1011.8 |
| 20260503224559 | 50 | 207 | 2.6 | 9.6 | 0.00 | 0.00 | 0.00 | 42 | 1011.8 |
| 20260503223054 | 51 | 208 | 3.5 | 9.6 | 0.00 | 0.00 | 0.00 | 40 | 1011.8 |
| 20260503221542 | 51 | 206 | 1.7 | 14.8 | 0.00 | 0.00 | 0.00 | 40 | 1011.6 |
| 20260503220013 | 51 | 207 | 3.5 | 11.3 | 0.00 | 0.00 | 0.00 | 40 | 1011.7 |
| 20260503214513 | 51 | 207 | 3.5 | 9.6 | 0.00 | 0.00 | 0.00 | 40 | 1011.7 |
| 20260503213001 | 51 | 208 | 3.5 | 7.8 | 0.00 | 0.00 | 0.00 | 39 | 1011.4 |
| 20260503211551 | 51 | 207 | 3.5 | 8.7 | 0.00 | 0.00 | 0.00 | 38 | 1011.3 |
| 20260503210051 | 50 | 205 | 3.5 | 10.4 | 0.00 | 0.00 | 0.00 | 39 | 1011.3 |